FENGYUN 1C DEB, 32119

Orbit data source: Space-Track

FENGYUN 1C DEB, 32119 is space debris in SSO originally from a launch on Mon, 10 May 1999 UTC launched from the Taiyaun Space Center, China (TSC). Fengyun 1C debris stems from the Chinese weather satellite Fengyun-1C, which was intentionally destroyed by a Chinese anti-satellite missile in 2007. This event dramatically increased the amount of space debris, with thousands of trackable fragments posing hazards to satellites and human spaceflight. The Fengyun 1C debris cloud has become a focal point in discussions about space sustainability and the need for international regulations to prevent the creation of new debris.

Loading next visibility...
Identifier
32119, 1999-025CRM
Orbit
SSO
Country
Flag of CNCN / PRC
Related business
Manufacturer
Unknown
Mission
Spacecraft
Bus & Motor
Unknown
Mass
Unknown
Launch date (UTC)
1999-05-10 (27 years ago)
Launch vehicle
Unknown
Launch site
Taiyaun Space Center, China (TSC)
Object type
Payload
Rocket body
Debris
Shape & HBR
Unknown shape, 0.1 m
Radar Cross Section
Small (<0.1 m²)

Expand to show TLE details & history
Last TLE update: 5 days ago

TLE from 5 days ago
0 FENGYUN 1C DEB
1 32119U 99025CRM 26141.41892686  .00000517  00000-0  35345-3 0  9995
2 32119  99.8750  22.4872 0085584 343.1184  16.7136 14.03212942959673
Epoch: 2026-05-21T10:03Z
TLE epoch observation values (Epoch: 2026-05-21T10:03:15.280Z)
Latitude
0.00001°
Longitude
-7.39087°
Altitude
826.06 km
Speed
7.47 km/s
True Right ascension
01h 29m 56s
True Declination
0° 00' 00"
Sunlit
Object was in daylight at epoch
Visualization orbit readout
Latitude
Unknown
Longitude
Unknown
Altitude
Unknown
Speed
Unknown
Apparent Right ascension
Unknown
Apparent Declination
Unknown
Sunlit
N/A
Visualization observer readout
Local Sidereal Time
20:38:47
Azimuth
Unknown
Elevation
Unknown
Doppler factor
Unknown
Orbital elements
Apogee altitude
942.048 km
Perigee altitude
817.813 km
Semi-major axis
7,258.067 km
Eccentricity
0.00856
Inclination
99.875°
RAAN
22.4872°
Arg. of periapsis
343.1184°
True anomaly
16.99856°
Mean anomaly
16.7136°
Eccentric anomaly
16.85579°
Mean motion
3.51004 °/min
Orbital period
102.56 mins
BSTAR
0.00035345
Loading maneuver chart data...
Computing Atmospheric mass density...
Loading historical data...
Loading historical data...
Loading historical data...
Loading historical data...
Loading historical data...
Loading historical data...
Loading historical data...

Documentation

Showing up to 5 results
|